Tracking 28522 objects as of 28-Feb-2024
HD Live streaming from Space Station
objects crossing your sky now

FLOCK 4Y 32

Track FLOCK 4Y 32 now!
10-day predictions
FLOCK 4Y 32 is classified as:


NORAD ID: 55021
Int'l Code: 2023-001N
Perigee: 492.0 km
Apogee: 504.9 km
Inclination: 97.4 °
Period: 94.4 minutes
Semi major axis: 6869 km
RCS: Unknown
Launch date: January 3, 2023
Source: United States (US)
Launch site: AIR FORCE EASTERN TEST RANGE (AFETR)
Your satellite tracking list
Your tracking list is empty




NASA's NSSDC Master Catalog

Two Line Element Set (TLE):
1 55021U 23001N   24058.74789055  .00013251  00000-0  53561-3 0  9998
2 55021  97.4391 121.1658 0009411 187.9164 172.1927 15.24825101 63932
Source of the keplerian elements: AFSPC